This is the latest recevied weather packets stored in our database for station/object K8RRT. If no packets are shown the sender has not sent any weather packets the latest 10 day(s).
| Time | Temp. | Humidity | Pressure | Rain* | Wind** | Luminosity | Snow |
|---|---|---|---|---|---|---|---|
| 1787835891 | 21.67° C | 98% | 1011.5 hPa | 0 mm | - | 280 W/m² | - |
| 1787835590 | 21.67° C | 99% | 1011.4 hPa | 0 mm | - | 258 W/m² | - |
| 1787835286 | 20.56° C | 99% | 1011.5 hPa | 0 mm | - | 106 W/m² | - |
| 1787834981 | 20.56° C | 99% | 1011.6 hPa | 0 mm | - | 91 W/m² | - |
| 1787834680 | 20° C | 99% | 1011.5 hPa | 0 mm | - | 87 W/m² | - |
| 1787834375 | 20° C | 99% | 1011.5 hPa | 0 mm | - | 82 W/m² | - |
| 1787834071 | 20° C | 99% | 1011.6 hPa | 0 mm | - | 75 W/m² | - |
| 1787833766 | 19.44° C | 99% | 1011.5 hPa | 0 mm | - | 66 W/m² | - |
| 1787833461 | 19.44° C | 99% | 1011.5 hPa | 0 mm | - | 69 W/m² | - |
| 1787833157 | 19.44° C | 99% | 1011.6 hPa | 0 mm | - | 65 W/m² | - |
| 1787832853 | 18.89° C | 99% | 1011.3 hPa | 0 mm | - | 60 W/m² | - |
| 1787832548 | 19.44° C | 99% | 1011.5 hPa | 0 mm | - | 53 W/m² | - |
| 1787832247 | 19.44° C | 99% | 1011.3 hPa | 0 mm | - | 49 W/m² | - |
| 1787831944 | 18.89° C | 99% | 1011.3 hPa | 0 mm | - | 46 W/m² | - |
| 1787831640 | 18.33° C | 99% | 1011.4 hPa | 0 mm | - | 46 W/m² | - |
| 1787831339 | 18.33° C | 99% | 1011.5 hPa | 0 mm | - | 42 W/m² | - |
| 1787831036 | 18.33° C | 99% | 1011.2 hPa | 0 mm | - | 37 W/m² | - |
| 1787830735 | 18.33° C | 99% | 1011.1 hPa | 0 mm | - | 33 W/m² | - |
| 1787830434 | 18.33° C | 99% | 1011.3 hPa | 0 mm | - | 30 W/m² | - |
| 1787830134 | 17.78° C | 99% | 1011 hPa | 0 mm | - | 25 W/m² | - |
| 1787829834 | 17.78° C | 99% | 1011.1 hPa | 0 mm | - | 19 W/m² | - |
| 1787829533 | 17.78° C | 99% | 1010.8 hPa | 0 mm | - | 15 W/m² | - |
| 1787829229 | 17.78° C | 99% | 1010.8 hPa | 0 mm | - | 12 W/m² | - |
| 1787828924 | 17.78° C | 99% | 1010.8 hPa | 0 mm | - | 8 W/m² | - |
| 1787828621 | 17.78° C | 99% | 1011.1 hPa | 0 mm | - | 6 W/m² | - |
* Rain latest hour (hover to see other rain measurements)
** Current wind speed in m/s (hover to see current wind gust speed)